カタログに戻る

SL-14 R/B

運用中PO
NORAD 16194·ROCKET BODY·🇷🇺 Russia

打ち上げ Oct 24, 1985 から Plesetsk Cosmodrome

Loading…

次のパス (今後24時間)

TLE

最新Source: Space-Track

元期: Sep 14, 2026, 13:57 UTC

1 16194U 85100B   26257.58175200  .00000023  00000-0  34209-4 0  9992
2 16194  82.6026 200.1689 0015660 299.9160 234.1004 13.06838600949851

AllMySatでSL-14 R/Bをリアルタイム追跡

Download on the App Store